Location: La Trinit�
(48.1620°N, 3.4512°W)
Time: 15:57:18
(UTC+00:00)

IGS 5A - Pass Details

Date: 08 May 2021
Orbit: 583 x 588 km, 97.6° (Epoch: 06 May)

Event Time Altitude Azimuth Distance (km) Brightness Sun altitude
Exits shadow 20:04:31 - 137° (SE) 2,319 5.9 -4.7°
Reaches altitude 10° 20:05:36 10° 131° (SE) 1,903 5.4 -4.9°
Maximum altitude 20:09:18 33° 68° (ENE) 1,003 4.4 -5.4°
Drops below altitude 10° 20:13:01 10° 5° (N) 1,917 6.5 -5.9°
Sets 20:15:20 0° 355° (N) 2,823 7.6 -6.2°
